Weather in Cheltenham

United Kingdom     51°53′49″N   2°04′46″W
temp.,
°C
wind,
m/s
gust,
m/s
humid.,
%
clouds,
%
prec.,
mm/h
press.,
hPa
HPBL,
m
16 january, sun
sun1600:00+5ssw3579100 0.0 1023112
03:00+5ssw3594100 0.0 1022143
06:00+4sw329767 0.1 102335
09:00+4sw229482 0.0 102522
12:00+8wnw488070 0.0 1027518
15:00+8nw478373 0.0 1028470
18:00+4nnw2787100 0.0 1032186
21:00+3nw36895 0.0 1034127
17 january, mon
mon1700:00+2w22910 0.0 103632
03:00+1w22914 0.0 103620
06:00+1w22890 0.0 103714
09:00+2w22860 0.0 103825
12:00+6nw23773 0.0 1039274
15:00+6nnw11834 0.0 103815
18:00+3w00895 0.0 103810
21:00+3sse11874 0.0 103910
18 january, tue
tue1800:00+2s22860 0.0 103911
03:00+2s22855 0.0 103815
06:00+1s228481 0.0 103721
09:00+2s338390 0.0 103746
12:00+6s3675100 0.0 1037235
15:00+6s2385100 0.0 103595
18:00+5s2293100 0.0 103435
21:00+3s34941 0.0 103354
19 january, wed
wed1900:00+2ssw359337 0.0 103282
03:00+2ssw3595100 0.0 102981
06:00+2ssw3996100 0.0 1027185
09:00+4ssw51294100 0.0 1025331
12:00+6sw5139599 1.8 1022458
15:00+7nw71290100 0.6 1021920
18:00+4nnw715806 0.6 1024782
21:00+4nnw512835 0.0 1026654
20 january, thu
thu2000:00+2nnw412905 0.0 1029360
03:000nnw24946 0.0 103177
06:00−1nw22925 0.0 103336
09:00−1nnw21084100 0.0 1035356
12:00+2n696362 0.0 1036808
15:00+2nnw58645 0.0 1037972
18:00−1nnw37765 0.0 1038153
21:00−2nw22802 0.0 103922